Three Rivers, MI

12:44 AM EDT on March 29, 2017 (GMT -0400)
Three Rivers Municipal-Haines

Weather History for KHAI - January, 2009

Change the Weather History Date:

Tuesday, January 6, 2009

  Actual Average Record
Temperature  
Mean Temperature 21 °F -  
Max Temperature 30 °F 31 °F 50 °F (1987)
Min Temperature 12 °F 15 °F -13 °F (2014)
Degree Days  
Heating Degree Days 44    
Moisture  
Dew Point 19 °F    
Average Humidity 86    
Maximum Humidity 100    
Minimum Humidity 69    
Precipitation  
Precipitation 0.00 in - - ()
Sea Level Pressure  
Sea Level Pressure 29.77 in    
Wind  
Wind Speed 3 mph (ESE)    
Max Wind Speed 15 mph    
Max Gust Speed 20 mph    
Visibility 9 miles    
Events Snow    
Averages and records for this station are not official NWS values.
T = Trace of Precipitation, MM = Missing Value Source: NWS Daily Summary

Daily Weather History Graph

Daily Weather History Graph

Search for Another Location

Airport or City:

Trip Planner

Search our weather history database for the weather conditions in past years. The results will help you decide how hot, cold, wet, or windy it might be!

Date:

Astronomy

Jan. 06, 2009 Rise Set
Actual Time 8:10 AM EST 5:26 PM EST
Civil Twilight 7:38 AM EST 5:58 PM EST
Nautical Twilight 7:04 AM EST 6:32 PM EST
Astronomical Twilight 6:30 AM EST 7:06 PM EST
Moon 1:00 PM EST (1/6) 3:14 AM EST (1/6)
Length of Visible Light 10h 19m
Length of Day
9h 16m
Waxing Gibbous, 74% of the Moon is Illuminated
Jan 6
Waxing Gibbous
Jan 10
Full
Jan 17
Last Quarter
Jan 26
New
Feb 2
First Quarter

Hourly Weather History & Observations

Time (EST) Temp. Windchill Dew Point Humidity Pressure Visibility Wind Dir Wind Speed Gust Speed Precip Events Conditions
12:17 AM 15.8 °F - 12.2 °F 86% 29.97 in 10.0 mi Calm Calm - N/A   Clear
12:37 AM 14.0 °F - 12.2 °F 93% 29.96 in 10.0 mi Calm Calm - N/A   Clear
12:55 AM 15.8 °F - 12.2 °F 86% 29.95 in 10.0 mi Calm Calm - N/A   Clear
1:17 AM 14.0 °F - 12.2 °F 93% 29.93 in 10.0 mi Calm Calm - N/A   Clear
1:37 AM 14.0 °F - 12.2 °F 93% 29.93 in 7.0 mi Calm Calm - N/A   Clear
1:55 AM 14.0 °F - 12.2 °F 93% 29.92 in 10.0 mi Calm Calm - N/A   Clear
2:17 AM 14.0 °F - 12.2 °F 93% 29.92 in 10.0 mi Calm Calm - N/A   Clear
2:37 AM 14.0 °F - 14.0 °F 100% 29.92 in 10.0 mi Calm Calm - N/A   Clear
2:55 AM 14.0 °F - 14.0 °F 100% 29.92 in 10.0 mi Calm Calm - N/A   Clear
3:17 AM 14.0 °F - 12.2 °F 93% 29.92 in 10.0 mi Calm Calm - N/A   Clear
3:37 AM 14.0 °F - 12.2 °F 93% 29.91 in 10.0 mi Calm Calm - N/A   Clear
3:55 AM 14.0 °F - 12.2 °F 93% 29.90 in 10.0 mi Calm Calm - N/A   Clear
4:17 AM 14.0 °F - 12.2 °F 93% 29.89 in 10.0 mi Calm Calm - N/A   Clear
4:37 AM 14.0 °F - 12.2 °F 93% 29.88 in 10.0 mi Calm Calm - N/A   Clear
4:55 AM 15.8 °F - 12.2 °F 86% 29.88 in 10.0 mi Calm Calm - N/A   Clear
5:17 AM 12.2 °F - 12.2 °F 100% 29.86 in 10.0 mi Calm Calm - N/A   Clear
5:37 AM 14.0 °F - 14.0 °F 100% 29.86 in 10.0 mi Calm Calm - N/A   Clear
5:55 AM 14.0 °F - 12.2 °F 93% 29.86 in 10.0 mi Calm Calm - N/A   Clear
6:17 AM 15.8 °F 8.6 °F 14.0 °F 93% 29.84 in 10.0 mi NE 4.6 mph - N/A   Clear
6:37 AM 17.6 °F 12.3 °F 14.0 °F 86% 29.84 in 10.0 mi ENE 3.5 mph - N/A   Clear
6:55 AM 17.6 °F - 14.0 °F 86% 29.85 in 10.0 mi Calm Calm - N/A   Clear
7:17 AM 17.6 °F 12.3 °F 15.8 °F 93% 29.84 in 10.0 mi ENE 3.5 mph - N/A   Scattered Clouds
7:37 AM 19.4 °F 12.8 °F 17.6 °F 93% 29.82 in 10.0 mi ENE 4.6 mph - N/A   Mostly Cloudy
7:55 AM 21.2 °F 14.9 °F 17.6 °F 86% 29.82 in 10.0 mi ENE 4.6 mph - N/A   Mostly Cloudy
8:17 AM 21.2 °F - 17.6 °F 86% 29.83 in 10.0 mi Calm Calm - N/A   Overcast
8:37 AM 21.2 °F 13.6 °F 17.6 °F 86% 29.82 in 10.0 mi East 5.8 mph - N/A   Overcast
8:55 AM 23.0 °F 18.4 °F 17.6 °F 80% 29.83 in 10.0 mi ESE 3.5 mph - N/A   Overcast
9:17 AM 23.0 °F 15.8 °F 17.6 °F 80% 29.83 in 10.0 mi ESE 5.8 mph - N/A   Overcast
9:37 AM 23.0 °F 18.4 °F 17.6 °F 80% 29.84 in 10.0 mi East 3.5 mph - N/A   Overcast
9:55 AM 24.8 °F 19.1 °F 19.4 °F 80% 29.85 in 10.0 mi East 4.6 mph - N/A   Overcast
10:17 AM 24.8 °F 19.1 °F 17.6 °F 74% 29.84 in 10.0 mi ESE 4.6 mph - N/A   Overcast
10:37 AM 26.6 °F 18.2 °F 19.4 °F 74% 29.81 in 10.0 mi ESE 8.1 mph - N/A   Overcast
10:55 AM 26.6 °F 19.1 °F 19.4 °F 74% 29.81 in 10.0 mi SE 6.9 mph - N/A   Overcast
11:17 AM 26.6 °F 17.5 °F 17.6 °F 69% 29.79 in 10.0 mi ESE 9.2 mph - N/A   Overcast
11:37 AM 28.4 °F 19.7 °F 19.4 °F 69% 29.78 in 10.0 mi ESE 9.2 mph - N/A Snow Light Snow
11:55 AM 28.4 °F 18.0 °F 21.2 °F 74% 29.75 in 7.0 mi ESE 12.7 mph 17.3 mph N/A Snow Light Snow
12:17 PM 28.4 °F 18.5 °F 21.2 °F 74% 29.72 in 10.0 mi East 11.5 mph 17.3 mph N/A   Overcast
12:37 PM 28.4 °F 18.0 °F 21.2 °F 74% 29.72 in 4.0 mi SE 12.7 mph 16.1 mph N/A Snow Light Snow
12:55 PM 30.2 °F 20.2 °F 23.0 °F 75% 29.70 in 10.0 mi ESE 12.7 mph - N/A   Overcast
1:17 PM 30.2 °F 21.3 °F 23.0 °F 75% 29.69 in 10.0 mi ESE 10.4 mph 18.4 mph N/A   Overcast
1:37 PM 30.2 °F 19.3 °F 23.0 °F 75% 29.67 in 7.0 mi ESE 15.0 mph 19.6 mph N/A   Overcast
1:55 PM 30.2 °F 20.2 °F 23.0 °F 75% 29.65 in 10.0 mi ESE 12.7 mph - N/A   Overcast
2:17 PM 30.2 °F 20.2 °F 23.0 °F 75% 29.65 in 10.0 mi ESE 12.7 mph 18.4 mph N/A   Overcast
2:37 PM 28.4 °F 19.1 °F 23.0 °F 80% 29.65 in 10.0 mi ESE 10.4 mph - N/A   Overcast
2:55 PM 28.4 °F 19.1 °F 23.0 °F 80% 29.64 in 10.0 mi ESE 10.4 mph - N/A   Overcast
3:17 PM 28.4 °F 19.7 °F 24.8 °F 86% 29.62 in 10.0 mi East 9.2 mph - N/A   Overcast
3:37 PM 28.4 °F 18.5 °F 24.8 °F 86% 29.60 in 10.0 mi East 11.5 mph - N/A   Overcast
3:55 PM 28.4 °F 17.5 °F 24.8 °F 86% 29.61 in 10.0 mi ESE 13.8 mph 17.3 mph N/A   Overcast
4:16 PM 28.4 °F 20.4 °F 26.6 °F 93% 29.61 in 5.0 mi East 8.1 mph - N/A   Overcast
4:37 PM 28.4 °F 21.2 °F 26.6 °F 93% 29.59 in 4.0 mi East 6.9 mph - N/A   Overcast
4:55 PM 28.4 °F 20.4 °F 26.6 °F 93% 29.61 in 4.0 mi ESE 8.1 mph - N/A   Overcast
5:17 PM 28.4 °F 19.7 °F 26.6 °F 93% 29.57 in 2.0 mi East 9.2 mph - N/A   Overcast
5:37 PM 28.4 °F 20.4 °F 26.6 °F 93% 29.58 in 4.0 mi ESE 8.1 mph - N/A   Overcast
5:55 PM 28.4 °F 19.7 °F 26.6 °F 93% 29.59 in 7.0 mi ESE 9.2 mph - N/A   Overcast
6:17 PM 28.4 °F 22.2 °F 26.6 °F 93% 29.56 in 5.0 mi East 5.8 mph - N/A   Overcast
6:37 PM 28.4 °F 20.4 °F 26.6 °F 93% 29.55 in 4.0 mi East 8.1 mph - N/A   Overcast
6:55 PM 28.4 °F 20.4 °F 26.6 °F 93% 29.55 in 5.0 mi East 8.1 mph - N/A   Overcast
7:17 PM 28.4 °F 21.2 °F 26.6 °F 93% 29.53 in 7.0 mi East 6.9 mph - N/A   Overcast
7:37 PM 28.4 °F 20.4 °F 26.6 °F 93% 29.54 in 7.0 mi ESE 8.1 mph - N/A   Overcast
7:55 PM 28.4 °F 21.2 °F 26.6 °F 93% 29.53 in 7.0 mi ESE 6.9 mph - N/A   Overcast
8:17 PM 28.4 °F 21.2 °F 26.6 °F 93% 29.54 in 10.0 mi SE 6.9 mph - N/A   Overcast
8:37 PM 28.4 °F 23.3 °F 26.6 °F 93% 29.54 in 10.0 mi ESE 4.6 mph - N/A   Overcast
8:55 PM 28.4 °F 22.2 °F 26.6 °F 93% 29.52 in 10.0 mi ESE 5.8 mph - N/A   Overcast
9:17 PM 28.4 °F 23.3 °F 26.6 °F 93% 29.53 in 10.0 mi ESE 4.6 mph - N/A   Overcast
9:37 PM 28.4 °F 23.3 °F 26.6 °F 93% 29.52 in 10.0 mi ESE 4.6 mph - N/A   Overcast
9:55 PM 28.4 °F 22.2 °F 28.4 °F 100% 29.50 in 4.0 mi East 5.8 mph - N/A   Overcast
10:17 PM 28.4 °F 22.2 °F 28.4 °F 100% 29.48 in 4.0 mi East 5.8 mph - N/A   Overcast
10:36 PM 28.4 °F 23.3 °F 28.4 °F 100% 29.47 in 3.0 mi East 4.6 mph - N/A   Overcast
10:55 PM 28.4 °F 23.3 °F 28.4 °F 100% 29.45 in 4.0 mi East 4.6 mph - N/A   Overcast
11:17 PM 28.4 °F - 28.4 °F 100% 29.45 in 5.0 mi Calm Calm - N/A   Overcast
11:37 PM 28.4 °F 24.6 °F 28.4 °F 100% 29.44 in 7.0 mi East 3.5 mph - N/A   Overcast
11:55 PM 28.4 °F 24.6 °F 28.4 °F 100% 29.43 in 5.0 mi ESE 3.5 mph - N/A   Overcast